రప్తీసాగర్ ఎక్స్‌ప్రెస్

రప్తీసాగర్  ఎక్స్‌ప్రెస్

రప్తీసాగర్ ఎక్స్‌ప్రెస్ /తిరువనంతపురం సెంట్రల్ రైల్వే స్టేషన్-గోరఖ్పూర్
Raptisagar Express.jpg
Raptisagar Express Name Board
సారాంశం
రైలు వర్గంసూపర్ ఫాస్ట్ ఎక్స్‌ప్రెస్
స్థానికతకేరళ,తమిళనాడు,ఆంధ్ర ప్రదేశ్,మహారాష్ట్ర,మధ్య ప్రదేశ్,ఉత్తర ప్రదేశ్,బీహార్
ప్రస్తుతం నడిపేవారుఈశాన్య రైల్వే జోన్ భారతీయ రైల్వేలు
మార్గం
మొదలుతిరువనంతపురం సెంట్రల్ రైల్వే స్టేషన్
ఆగే స్టేషనులు60
గమ్యంగోరఖ్పూర్
ప్రయాణ దూరం3,248 కి.మీ. (10,656,000 అ.)
సగటు ప్రయాణ సమయం57గంటల 05నిమిషాలు
రైలు నడిచే విధంవారానికి మూడుసార్లు
రైలు సంఖ్య(లు)12511 / 12512
సదుపాయాలు
శ్రేణులుFirst AC ,2 Tier AC ,3 Tier AC,Sleeper Class,General
కూర్చునేందుకు సదుపాయాలుకలదు
పడుకునేందుకు సదుపాయాలుకలదు
ఆహార సదుపాయాలుపాంట్రీ కార్ కలదు
చూడదగ్గ సదుపాయాలుLarge windows
బ్యాగేజీ సదుపాయాలుAvailable
సాంకేతికత
రోలింగ్ స్టాక్Loco: WAP 4
పట్టాల గేజ్1,676 mm (5 ft 6 in)
వేగంసరాసరి: 55 km/hr అత్యధికం : 120 Km/hr
మార్గపటం
Raptisagar Express (Gorakhpur - Trivandrum) Route map.jpg
రప్తీసాగర్ ఎక్స్‌ప్రెస్ /ఎర్నాకులం-బరౌని జంక్షన్ ఎక్స్‌ప్రెస్
Raptisagar Express trainboard.jpg
Raptisagar Express Name Board
సారాంశం
రైలు వర్గంసూపర్ ఫాస్ట్ ఎక్స్‌ప్రెస్
స్థానికతకేరళ,తమిళనాడు,ఆంధ్ర ప్రదేశ్,మహారాష్ట్ర,మధ్య ప్రదేశ్,ఉత్తర ప్రదేశ్,బీహార్
ప్రస్తుతం నడిపేవారుఈశాన్య రైల్వే జోన్
మార్గం
మొదలుఎర్నాకులం
ఆగే స్టేషనులు63
గమ్యంబరోనీ
ప్రయాణ దూరం3,436 కి.మీ. (11,273,000 అ.)
సగటు ప్రయాణ సమయం62గంటలు
రైలు నడిచే విధంవారానికి ఒకమారు
రైలు సంఖ్య(లు)12521 / 12522
సదుపాయాలు
శ్రేణులుFirst AC ,2 Tier AC ,3 Tier AC,Sleeper Class,General
కూర్చునేందుకు సదుపాయాలుకలదు
పడుకునేందుకు సదుపాయాలుకలదు
ఆహార సదుపాయాలుపాంట్రీ కార్ కలదు
చూడదగ్గ సదుపాయాలుLarge windows
బ్యాగేజీ సదుపాయాలుAvailable
సాంకేతికత
రోలింగ్ స్టాక్Loco: WAP 4
పట్టాల గేజ్1,676 mm (5 ft 6 in)

వేగంసవరించు

మార్గంసవరించు

12511 నెంబరుతో తిరువనంతపురం సెంట్రల్ రైల్వే స్టేషన్ నుండి బయలుదేరు రప్తీసాగర్ ఎక్స్‌ప్రెస్ దక్షిణ,మధ్య,ఈశాన్య భారతదేశం లో ముఖ్యప్రాంతాలైన ఎర్నాకులం,కోయంబత్తూరు,జొలార్పెట్టై,చెన్నై,నెల్లూరు,విజయవాడ,వరంగల్లు,భోపాల్,ఝాన్సీ ,కాన్పూర్,లక్నో ల మీదుగా ప్రయాణిస్తు గోరఖ్పూర్ చేరుతుంది.

భోగీల అమరికసవరించు

LOCO 1 2 3 4 5 6 7 8 9 10 11 12 13 14 15 16 17 18 19 20 21 22 23 24
LOCO SLR GEN GEN GEN S1 S2 S3 S4 S5 S6 S7 S8 S9 S10 S11 PC B1 B2 A1 HA1 GEN GEN GEN SLR

ట్రాక్షన్సవరించు

గోరఖ్పూర్ వరకు ఈ రోడ్ లేదా లాల్ గుడా లోకోషెడ్ కు చెందిన WAP-4 లోకోమోటివ్ను ఉపయోగిస్తారు.

ప్రయాణ సమయంసవరించు

12521నెంబరుతో ఎర్నాకుళం నుండి బయలుదేరు రప్తీసాగర్ ఎక్స్‌ప్రెస్ బరోనీ చేరడానికి 62గంటలు పడుతుంది.

సమయ సారిణిసవరించు

సం కోడ్ స్టేషను పేరు 12521:రప్తీసాగర్ ఎక్స్‌ప్రెస్ /ఎర్నాకులం-బరౌని జంక్షన్ ఎక్స్‌ప్రెస్
రాక పోక ఆగు

సమయం

దూరం
1 ERS ఎర్నాకులం ప్రారంభం 10:15 0.0 1
2 AWY అలువ 10:38 10:40 2ని 19.5 1
3 AFK అంగమలి (కలాడీ) 10:50 10:51 1ని 28.6 1
4 CKI చలక్కుడి 11:04 11:05 1ని 44.1 1
5 IJK ఇరిన్జలక్కుడు 11:13 11:14 1ని 50.2 1
6 TCR త్రిశూర్ 11:37 11:40 3ని 74.0 1
7 WKI వాదక్కంచేరి 11:55 11:56 1ని 90.8 1
8 SRR షోరనూర్ జంక్షన్ 13:00 13:10 10ని 107.1 1
9 OTP ఒత్తప్పలం 13:28 13:30 2ని 119.9 1
10 PGT పాలక్కాడ్ 14:00 14:05 5ని 151.2 1
11 CBE కోయంబత్తూరు జంక్షన్ 15:30 15:33 3ని 206.9 1
12 TUP తిరుప్పూర్ 16:13 16:15 2ని 257.5 1
13 ED ఈ రోడ్ జంక్షన్ 17:05 17:15 10ని 307.7 1
14 SA సేలం జంక్షన్ 18:07 18:10 3ని 367.4 1
15 JTJ జొలార్పెట్టై జంక్షన్ 19:48 19:50 2ని 487.9 1
16 KPD కాట్పాడి 20:50 20:55 5ని 572.4 1
17 MAS చెన్నై సెంట్రల్ రైల్వే స్టేషను 23:05 23:25 20ని 701.4 1
18 GDR గూడూరు 01:35 01:37 2ని 839.1 2
19 NLR నెల్లూరు 02:02 02:03 1ని 277.5 2
20 OGL ఒంగోలు 03:29 03:30 1ని 994.2 2
21 CLX చీరాల 04:05 04:06 1ని 1043.6 2
22 BZA విజయవాడ జంక్షన్ రైల్వే స్టేషను 06:05 06:20 15ని 1132.7 2
23 KMT ఖమ్మం 07:30 07:32 2ని 1231.8 2
24 WL వరంగల్లు 09:08 09:10 2ని 1339.3 2
25 RDM రామగుండం 10:34 10:35 1ని 1440.6 2
26 MCI మంచిర్యాల 10:49 10:50 1ని 1454.3 2
27 BPA బెల్లంపల్లి 11:09 11:10 1ని 1474.0 2
28 SKZR కాగజ్‌నగర్‌ 11:39 11:40 1ని 1512.7 2
29 BPQ బల్లార్షా 13:05 13:15 10ని 1582.6 2
30 CD చంద్రపూర్ 13:34 13:35 1ని 1596.2 2
31 HGT హింగంఘాట్ 14:34 14:35 1ని 1681.7 2
32 SEGM సేవాగ్రాం 15:18 15:20 2ని 1714.8 2
33 NGP నాగ్పూర్ 16:45 16:55 10ని 1791.0 2
34 PAR పందుర్ణ 18:14 18:15 1ని 1895.5 2
35 AMLA ఆమ్లా జంక్షన్ 19:17 19:19 2ని 1959.2 2
36 BZU బేతుల్ 19:34 19:35 1ని 1982.3 2
37 GDYA ఘోరడోంగ్రి 20:14 20:15 1ని 2019.0 2
38 ET ఇటార్సీ 22:10 22:20 10ని 2089.4 2
39 BPL భోపాల్ 00:05 00:10 5ని 2181.2 3
40 LAR లలిత్ పూర్ 03:03 03:05 2ని 2382.9 3
41 JHS ఝాన్సీ రైల్వే జంక్షన్ 04:18 04:30 12ని 2473.3 3
42 ORAI ఒరై 06:01 06:03 2ని 2587.2 3
43 PHN పోఖ్రయన్ 06:33 06:35 2ని 2635.1 3
44 CNB కాన్పూర్ 08:15 08:20 5ని 2693.6 3
45 ON ఉన్నావో 08:42 08:44 2ని 2711.2 3
46 LJN లక్నో 09:45 10:05 20ని 2765.6 3
47 బాద్షనగర్ 10:30 10:32 2ని 2776.8 3
48 BNZ బారాబంకి జంక్షన్ 11:03 11:05 2ని 2801.2 3
49 GD గోండా జంక్షన్ 12:20 12:25 5ని 2890.4 3
50 MUR మంకపూర్ జంక్షన్ 12:49 12:51 2ని 2918.3 3
51 BST బస్తి 13:45 13:48 3ని 2978.8 3
52 KJD కలీలాబాద్ 14:09 14:11 2ని 3008.4 3
53 GKP గోరఖ్పూర్ 15:15 15:30 15ని 3042.3 3
54 DEOS దేవరియా సదర్ 16:08 16:10 2ని 3091.4 3
55 BTT భట్ని జంక్షన్ 16:35 16:40 5ని 3112.1 3
56 SV శివన్ జంక్షన్ 17:15 17:20 5ని 3160.9 3
57 CPR ఛాప్రా జంక్షన్ 18:40 18:45 5ని 3222.1 3
58 SEE సోనెపూర్ 19:35 19:37 2ని 3276.2 3
59 HJP హాజీపూర్ (అయోమయ నివృత్తి) 19:50 19:55 5ని 3281.56 3
60 MFP ముజాఫ్ఫర్పూర్ 21:00 21:05 5ని 3335.4 3
61 SPJ సమస్తిపూర్ జంక్షన్ 21:50 21:55 5ని 3387.5 3
62 BJU బరౌని జంక్షన్ 22:50 గమ్యం 3438.3 3
సం కోడ్ స్టేషను పేరు 12512:రప్తీసాగర్ ఎక్స్‌ప్రెస్(తిరువనంతపురం సెంట్రల్ రైల్వే స్టేషన్-గోరఖ్పూర్)
1 ERS ఎర్నాకులం ప్రారంభం 10:15 0.0 1
2 AWY అలువ 10:38 10:40 2ని 19.5 1
3 AFK అంగమలి (కలాడీ) 10:50 10:51 1ని 28.6 1
4 CKI చలక్కుడి 11:04 11:05 1ని 44.1 1
5 IJK ఇరిన్జలక్కుడు 11:13 11:14 1ని 50.2 1
6 TCR త్రిశూర్ 11:37 11:40 3ని 74.0 1
7 WKI వాదక్కంచేరి 11:55 11:56 1ని 90.8 1
8 SRR షోరనూర్ జంక్షన్ 13:00 13:10 10ని 107.1 1
9 OTP ఒత్తప్పలం 13:28 13:30 2ని 119.9 1
10 PGT పాలక్కాడ్ 14:00 14:05 5ని 151.2 1
11 CBE కోయంబత్తూరు జంక్షన్ 15:30 15:33 3ని 206.9 1
12 TUP తిరుప్పూర్ 16:13 16:15 2ని 257.5 1
13 ED ఈ రోడ్ జంక్షన్ 17:05 17:15 10ని 307.7 1
14 SA సేలం జంక్షన్ 18:07 18:10 3ని 367.4 1
15 JTJ జొలార్పెట్టై జంక్షన్ 19:48 19:50 2ని 487.9 1
16 KPD కాట్పాడి 20:50 20:55 5ని 572.4 1
17 MAS చెన్నై సెంట్రల్ రైల్వే స్టేషను 23:05 23:25 20ని 701.4 1
18 GDR గూడూరు 01:35 01:37 2ని 839.1 2
19 NLR నెల్లూరు 02:02 02:03 1ని 277.5 2
20 OGL ఒంగోలు 03:29 03:30 1ని 994.2 2
21 CLX చీరాల 04:05 04:06 1ని 1043.6 2
22 BZA విజయవాడ జంక్షన్ రైల్వే స్టేషను 06:05 06:20 15ని 1132.7 2
23 KMT ఖమ్మం 07:30 07:32 2ని 1231.8 2
24 WL వరంగల్లు 09:08 09:10 2ని 1339.3 2
25 RDM రామగుండం 10:34 10:35 1ని 1440.6 2
26 MCI మంచిర్యాల 10:49 10:50 1ని 1454.3 2
27 BPA బెల్లంపల్లి 11:09 11:10 1ని 1474.0 2
28 SKZR కాగజ్‌నగర్‌ 11:39 11:40 1ని 1512.7 2
29 BPQ బల్లార్షా 13:05 13:15 10ని 1582.6 2
30 CD చంద్రపూర్ 13:34 13:35 1ని 1596.2 2
31 HGT హింగంఘాట్ 14:34 14:35 1ని 1681.7 2
32 SEGM సేవాగ్రాం 15:18 15:20 2ని 1714.8 2
33 NGP నాగ్పూర్ 16:45 16:55 10ని 1791.0 2
34 PAR పందుర్ణ 18:14 18:15 1ని 1895.5 2
35 AMLA ఆమ్లా జంక్షన్ 19:17 19:19 2ని 1959.2 2
36 BZU బేతుల్ 19:34 19:35 1ని 1982.3 2
37 GDYA ఘోరడోంగ్రి 20:14 20:15 1ని 2019.0 2
38 ET ఇటార్సీ 22:10 22:20 10ని 2089.4 2
39 BPL భోపాల్ 00:05 00:10 5ని 2181.2 3
40 LAR లలిత్ పూర్ 03:03 03:05 2ని 2382.9 3
41 JHS ఝాన్సీ రైల్వే జంక్షన్ 04:18 04:30 12ని 3
42 ORAI ఒరై 06:01 06:03 2ని 3
43 PHN పోఖ్రయన్ 06:33 06:35 2ని 3
44 CNB కాన్పూర్ 08:15 08:20 5ని 3
45 ON ఉన్నావో 08:42 08:44 2ని 3
46 LJN లక్నో 09:45 10:05 20ని 3
47 బాద్షనగర్ 10:30 10:32 2ని 3
48 BNZ బారాబంకి జంక్షన్ 11:03 11:05 2ని 3
49 GD గోండా జంక్షన్ 12:20 12:25 5ని 3
50 MUR మంకపూర్ జంక్షన్ 12:49 12:51 2ని 3
51 BST బస్తి 13:45 13:48 3ని 3184.7 3
52 KJD కలీలాబాద్ 14:09 14:11 2ని 3214.3 3
53 GKP గోరఖ్పూర్ 15:20 గమ్యం 3248.2 3

మూలాలుసవరించు